FANDOM


Summer 2008 Match Trends is a compilation of all the hourly trends of every match in 2008 Contest. You know how characters have general trends, like the Nintendo Day Vote and Square Night Vote? Thanks to LeonhartFour's work, we can now see it in-depth.

See Also Edit

Daily Vote Trends

Early Vote
Early Board Vote (0:00-0:05)
Early Bracket Vote (0:00-0:05)
Power Hour Vote (0:00-1:00)

Night Vote
First Night Vote (1:00-6:00)
Second Night Vote (22:00-24:00)

Day Vote
Before School Vote (6:00-9:00)
During School Vote (9:00-14:30)
After School Vote (14:30-22:00)


The Match Trends Template Edit

Time

Character Names

  • This should be self-explanatory.

Demographic

  • The time period by hour (EST).

Votes

  • The amount of total votes cast during that time period.

Round 1 Edit

Cecil vs Jade vs Wario vs Zack

TimeCecilJadeWarioZackDemographicVotes
EBV17.17%8.08%36.49%38.26%(0:00-0:05)1806
PHV18.12%6.64%34.65%40.59%(0:00-1:00)13100
FNV17.89%6.25%30.98%44.64%(1:00-6:00)22936
BSV15.87%5.93%35.29%42.91%(6:00-9:00)14208
DSV16.65%5.89%32.94%44.51%(9:00-14:30)30306
ASV15.12%5.62%33.75%45.51%(14:30-22:00)46696
SNV15.86%5.70%29.46%48.98%(22:00-24:00)8215

Link vs Luke vs Shadow vs Zidane

TimeLinkLukeShadowZidaneDemographicVotes
EBV57.68%7.03%15.69%19.60%(0:00-0:05)2148
PHV60.19%6.94%14.80%18.06%(0:00-1:00)12882
FNV58.76%6.64%14.24%20.36%(1:00-6:00)22774
BSV59.03%6.33%15.22%19.42%(6:00-9:00)14428
DSV61.29%5.62%14.54%18.55%(9:00-14:30)31856
ASV61.82%5.87%16.81%15.51%(14:30-22:00)45730
SNV61.59%6.38%16.43%15.60%(22:00-24:00)8464

Duke vs Kefka vs Marth vs Niko

TimeDukeKefkaMarthNikoDemographicVotes
EBV23.20%25.09%29.78%21.92%(0:00-0:05)1642
PHV24.51%24.68%29.19%21.62%(0:00-1:00)12629
FNV27.51%24.03%26.05%22.40%(1:00-6:00)26068
BSV28.91%20.91%27.48%22.70%(6:00-9:00)12689
DSV25.69%20.18%31.07%23.06%(9:00-14:30)40380
ASV26.44%20.18%30.73%22.65%(14:30-22:00)37580
SNV24.06%22.37%30.61%22.95%(22:00-24:00)7232

Altair vs Guybrush vs Isaac vs Lucario

TimeAltairGuybrushIsaacLucarioDemographicVotes
EBV39.17%11.26%22.59%26.98%(0:00-0:05)1616
PHV39.68%12.25%23.95%24.12%(0:00-1:00)12793
FNV41.23%15.39%21.92%21.46%(1:00-6:00)27225
BSV40.48%18.84%19.07%21.61%(6:00-9:00)12233
DSV43.15%13.01%21.03%22.81%(9:00-14:30)41134
ASV45.52%12.64%19.83%22.01%(14:30-22:00)41507
SNV46.24%12.79%20.51%20.46%(22:00-24:00)7654

Liquid vs Luigi vs Roxas vs Sho

TimeLiquidLuigiRoxasShoDemographicVotes
EBV31.12%42.72%16.73%9.43%(0:00-0:05)1793
PHV34.07%40.16%17.12%8.65%(0:00-1:00)12978
FNV36.02%37.46%17.80%8.72%(1:00-6:00)23234
BSV32.65%40.95%18.79%7.61%(6:00-9:00)14393
DSV34.58%40.38%17.62%7.43%(9:00-14:30)31598
ASV30.72%40.06%21.07%8.15%(14:30-22:00)49200
SNV32.61%38.07%20.56%8.76%(22:00-24:00)8103

Bowser vs Deckard vs Geno vs Phoenix

TimeBowserDeckardGenoPhoenixDemographicVotes
EBV38.27%13.78%20.04%27.92%(0:00-0:05)1662
PHV39.95%13.88%19.19%26.98%(0:00-1:00)11633
FNV40.85%16.15%15.24%27.75%(1:00-6:00)21338
BSV46.26%14.20%14.07%25.48%(6:00-9:00)13011
DSV45.99%15.11%15.92%22.98%(9:00-14:30)29346
ASV47.68%13.45%17.20%21.68%(14:30-22:00)45849
SNV44.10%14.57%18.55%22.77%(22:00-24:00)7548

Fei vs Knuckles vs Mario vs Zelda

TimeFeiKnucklesMarioZeldaDemographicVotes
EBV12.77%20.99%40.33%25.90%(0:00-0:05)1691
PHV14.04%20.08%39.73%26.16%(0:00-1:00)12148
FNV16.91%20.27%37.77%25.05%(1:00-6:00)21815
BSV12.96%19.94%42.06%25.05%(6:00-9:00)14109
DSV14.65%20.21%40.15%24.99%(9:00-14:30)29602
ASV12.40%22.09%41.75%23.75%(14:30-22:00)47197
SNV15.76%21.03%39.82%23.39%(22:00-24:00)8145

Lloyd vs Mudkip vs Nook vs X

TimeLloydMudkipNookXDemographicVotes
EBV15.15%30.42%9.86%44.56%(0:00-0:05)1683
PHV15.28%33.40%8.25%43.07%(0:00-1:00)13296
FNV16.14%29.25%7.92%46.69%(1:00-6:00)22677
BSV16.94%31.84%8.89%42.34%(6:00-9:00)14571
DSV16.62%29.22%8.20%45.95%(9:00-14:30)31969
ASV16.96%30.65%9.31%43.08%(14:30-22:00)48497
SNV16.92%27.04%8.79%47.25%(22:00-24:00)8501

Crash vs Nightmare vs Raz vs Samus

TimeCrashNightmareRazSamusDemographicVotes
EBV16.47%22.11%8.86%52.56%(0:00-0:05)1524
PHV15.37%22.71%9.25%52.67%(0:00-1:00)11232
FNV17.80%22.05%8.74%51.42%(1:00-6:00)21336
BSV18.94%21.04%7.60%52.03%(6:00-9:00)12984
DSV16.82%22.13%8.06%52.54%(9:00-14:30)29840
ASV16.09%23.63%8.00%52.28%(14:30-22:00)40767
SNV15.85%23.65%8.31%52.19%(22:00-24:00)7496

Frog vs Ganon vs KOS-MOS vs Neku

TimeFrogGanonKOS-MOSNekuDemographicVotes
EBV29.72%43.59%18.80%7.89%(0:00-0:05)1154
PHV28.25%44.99%18.03%8.73%(0:00-1:00)9017
FNV25.58%39.83%21.17%13.42%(1:00-6:00)25227
BSV23.05%43.68%19.71%13.56%(6:00-9:00)11751
DSV23.09%46.31%18.30%12.30%(9:00-14:30)38382
ASV23.96%44.10%19.68%12.26%(14:30-22:00)36848
SNV23.95%42.46%20.73%12.86%(22:00-24:00)6999

Falco vs GlaDOS vs Vincent vs Wander

TimeFalcoGlaDOSVincentWanderDemographicVotes
EBV31.05%24.12%37.11%7.73%(0:00-0:05)1501
PHV27.96%23.43%40.77%7.84%(0:00-1:00)12305
FNV24.45%21.46%45.92%8.17%(1:00-6:00)26571
BSV25.08%19.42%47.52%7.98%(6:00-9:00)11351
DSV28.95%19.24%44.66%7.15%(9:00-14:30)39784
ASV26.79%19.00%46.98%7.24%(14:30-22:00)40856
SNV24.94%19.61%48.13%7.32%(22:00-24:00)7666

Balthier vs Big Daddy vs Freeman vs Scorpion

TimeBalthierBig DaddyFreemanScorpionDemographicVotes
EBV23.49%17.84%30.60%28.06%(0:00-0:05)1575
PHV22.65%17.99%30.04%29.32%(0:00-1:00)12133
FNV24.26%17.09%29.42%29.24%(1:00-6:00)22409
BSV23.43%17.90%28.99%29.68%(6:00-9:00)13662
DSV22.56%18.32%29.12%30.01%(9:00-14:30)30470
ASV21.20%20.57%27.47%30.75%(14:30-22:00)46704
SNV22.31%20.61%26.02%31.06%(22:00-24:00)8136

Ammy vs Crono vs Frank vs Kaim

TimeAmmyCronoFrankKaimDemographicVotes
EBV28.47%48.60%15.00%7.93%(0:00-0:05)1500
PHV26.26%50.72%15.54%7.48%(0:00-1:00)11580
FNV26.18%50.44%15.49%7.89%(1:00-6:00)20951
BSV27.46%48.67%15.58%8.29%(6:00-9:00)12816
DSV26.74%49.05%15.91%8.29%(9:00-14:30)29866
ASV26.65%48.17%17.18%8.00%(14:30-22:00)40829
SNV25.41%50.88%15.53%8.17%(22:00-24:00)7488

L-Block vs Meta Knight vs Ryu vs The Dog

TimeL-BlockMeta KnightRyuThe DogDemographicVotes
EBV35.21%22.81%27.76%14.22%(0:00-0:05)1920
PHV33.34%21.77%29.77%15.12%(0:00-1:00)13792
FNV32.27%19.76%34.46%13.52%(1:00-6:00)23173
BSV31.97%22.66%30.94%14.43%(6:00-9:00)14594
DSV30.67%21.55%33.04%14.74%(9:00-14:30)31808
ASV31.85%25.12%29.73%13.30%(14:30-22:00)47738
SNV31.88%21.53%32.56%14.02%(22:00-24:00)8239

Alucard vs Falcon vs Diddy Kong vs Kratos A.

TimeAlucardFalconDiddy KongKratos A.DemographicVotes
EBV31.19%34.70%18.25%15.86%(0:00-0:05)1677
PHV34.51%32.08%17.61%15.80%(0:00-1:00)11886
FNV38.56%26.76%18.39%16.29%(1:00-6:00)20204
BSV34.91%28.85%19.79%16.45%(6:00-9:00)12720
DSV37.85%26.33%19.17%16.66%(9:00-14:30)26987
ASV32.73%29.58%19.32%18.37%(14:30-22:00)42358
SNV37.85%26.82%17.81%17.52%(22:00-24:00)7125

Arthas vs Ike vs Pikachu vs Spy

TimeArthasIkePikachuSpyDemographicVotes
EBV21.21%25.90%36.06%16.83%(0:00-0:05)1664
PHV25.17%25.70%31.41%17.71%(0:00-1:00)13006
FNV29.39%23.20%31.11%16.30%(1:00-6:00)23374
BSV25.85%24.85%33.63%15.66%(6:00-9:00)14070
DSV28.12%24.94%31.93%15.01%(9:00-14:30)30216
ASV25.27%27.96%32.55%14.23%(14:30-22:00)44291
SNV25.18%28.79%32.45%13.59%(22:00-24:00)7979

DK vs Tails vs Tidus vs Cube

TimeDKTailsTidusCubeDemographicVotes
EBV21.61%15.18%28.83%34.38%(0:00-0:05)1495
PHV20.62%14.52%28.77%36.08%(0:00-1:00)12078
FNV20.71%14.42%31.82%33.05%(1:00-6:00)25854
BSV21.92%15.60%33.24%29.24%(6:00-9:00)12308
DSV22.54%15.30%31.40%30.77%(9:00-14:30)40163
ASV20.42%14.63%32.27%32.68%(14:30-22:00)39119
SNV20.42%13.73%32.59%33.26%(22:00-24:00)7364

Banjo vs Olimar vs Mega Man vs Nero

TimeBanjoOlimarMega ManNeroDemographicVotes
EBV15.92%13.72%49.45%20.84%(0:00-0:05)1545
PHV14.65%12.63%51.69%21.02%(0:00-1:00)12081
FNV12.91%10.63%52.08%24.38%(1:00-6:00)25777
BSV13.60%12.42%46.51%27.46%(6:00-9:00)11461
DSV14.00%12.16%49.89%23.95%(9:00-14:30)38217
ASV12.61%11.22%52.20%23.97%(14:30-22:00)39854
SNV11.71%9.28%55.94%23.06%(22:00-24:00)7324

DeDeDe vs Pit vs Hayabusa vs Zero

TimeDeDeDePitHayabusaZeroDemographicVotes
EBV17.45%16.52%32.55%33.48%(0:00-0:05)1622
PHV15.30%14.19%34.15%36.36%(0:00-1:00)11794
FNV13.01%13.47%35.96%37.56%(1:00-6:00)20899
BSV14.16%15.44%36.30%34.09%(6:00-9:00)12744
DSV12.88%14.34%37.98%34.81%(9:00-14:30)28082
ASV13.51%15.27%36.52%34.69%(14:30-22:00)44389
SNV11.60%14.26%36.91%37.22%(22:00-24:00)7455

Wesker vs Sackboy vs Snake vs Vivi

TimeWeskerSackboySnakeViviDemographicVotes
EBV12.68%11.23%50.66%25.42%(0:00-0:05)1656
PHV13.22%10.81%49.89%26.08%(0:00-1:00)12294
FNV12.98%9.87%51.27%25.88%(1:00-6:00)22242
BSV12.36%9.63%51.00%27.01%(6:00-9:00)13991
DSV12.86%9.61%50.88%26.65%(9:00-14:30)31010
ASV11.98%10.04%52.63%25.35%(14:30-22:00)47683
SNV12.14%9.92%52.79%25.16%(22:00-24:00)8058

Chris R. vs Fox vs Sora vs Tim

TimeChris R.FoxSoraTimDemographicVotes
EBV20.38%33.29%36.88%9.44%(0:00-0:05)1673
PHV22.59%32.50%36.80%8.12%(0:00-1:00)12034
FNV25.87%28.53%38.30%7.30%(1:00-6:00)21309
BSV23.69%31.17%38.85%6.28%(6:00-9:00)13717
DSV25.41%29.79%38.33%6.47%(9:00-14:30)29194
ASV22.41%31.19%40.39%6.02%(14:30-22:00)46538
SNV23.13%29.43%41.13%6.31%(22:00-24:00)7815

CATS vs Nathan vs Squall vs Yoshi

TimeCATSNathanSquallYoshiDemographicVotes
EBV22.02%6.99%39.46%31.54%(0:00-0:05)1617
PHV18.81%6.67%42.49%32.03%(0:00-1:00)12012
FNV16.32%6.65%47.15%29.88%(1:00-6:00)20908
BSV14.26%7.00%45.99%34.64%(6:00-9:00)12914
DSV14.32%7.26%44.90%33.52%(9:00-14:30)31389
ASV14.85%6.83%44.50%33.82%(14:30-22:00)42242
SNV15.02%6.34%46.99%31.65%(22:00-24:00)7450

Axel Steel vs Cloud vs Midna vs Edgeworth

TimeAxel SteelCloudMidnaEdgeworthDemographicVotes
EBV8.23%50.00%24.81%16.96%(0:00-0:05)1592
PHV7.40%55.01%22.19%15.40%(0:00-1:00)12331
FNV6.50%58.88%19.89%14.74%(1:00-6:00)23386
BSV7.53%59.34%20.57%12.57%(6:00-9:00)13926
DSV7.49%60.97%20.11%11.44%(9:00-14:30)30964
ASV8.23%60.28%20.51%10.97%(14:30-22:00)42229
SNV7.64%63.72%18.86%9.79%(22:00-24:00)7828

Mewtwo vs Ness vs Pac-Man vs Travis

TimeMewtwoNessPac-ManTravisDemographicVotes
EBV40.86%19.37%24.30%15.47%(0:00-0:05)1461
PHV39.84%20.22%23.66%16.28%(0:00-1:00)11863
FNV40.45%18.16%25.42%15.97%(1:00-6:00)23828
BSV42.58%15.42%28.04%13.96%(6:00-9:00)11634
DSV42.70%18.16%25.47%13.67%(9:00-14:30)36897
ASV42.28%18.71%24.30%14.71%(14:30-22:00)34676
SNV41.86%20.05%23.32%15.61%(22:00-24:00)6579

Big Boss vs Jinjo vs Kirby vs Lucas

TimeBig BossJinjoKirbyLucasDemographicVotes
EBV41.02%16.97%36.72%5.29%(0:00-0:05)1626
PHV45.09%13.39%35.60%5.92%(0:00-1:00)12527
FNV50.29%9.70%34.63%5.38%(1:00-6:00)26746
BSV49.68%8.21%37.46%4.65%(6:00-9:00)11616
DSV46.28%9.59%38.63%5.50%(9:00-14:30)38616
ASV48.49%8.61%36.83%6.07%(14:30-22:00)40307
SNV49.73%8.41%35.56%6.29%(22:00-24:00)7536

Kain vs The Chief vs Layton vs Raiden

TimeKainThe ChiefLaytonRaidenDemographicVotes
EBV24.77%33.96%10.62%30.65%(0:00-0:05)1752
PHV26.01%34.32%10.55%29.13%(0:00-1:00)13139
FNV27.28%32.70%9.85%30.17%(1:00-6:00)23765
BSV26.33%34.97%10.02%28.68%(6:00-9:00)12392
DSV25.24%37.39%9.26%28.11%(9:00-14:30)35813
ASV24.21%39.70%8.82%27.26%(14:30-22:00)43176
SNV24.88%38.13%8.87%28.12%(22:00-24:00)7319

MacMillan vs Leon vs Riku vs Siegfried

TimeMacMillanLeonRikuSiegfriedDemographicVotes
EBV12.86%43.29%28.29%15.56%(0:00-0:05)1594
PHV13.76%43.55%26.83%15.86%(0:00-1:00)11653
FNV12.96%43.35%26.13%17.56%(1:00-6:00)21582
BSV13.33%41.90%27.10%17.67%(6:00-9:00)13047
DSV12.91%44.23%25.54%17.32%(9:00-14:30)28407
ASV14.02%40.32%29.49%16.16%(14:30-22:00)44951
SNV12.25%43.69%27.53%16.53%(22:00-24:00)7428

Dante vs Hogger vs Laharl vs Ramza

TimeDanteHoggerLaharlRamzaDemographicVotes
EBV44.44%17.51%17.14%20.91%(0:00-0:05)1645
PHV45.73%17.46%17.31%19.49%(0:00-1:00)11939
FNV49.36%15.76%17.64%17.24%(1:00-6:00)21654
BSV51.29%16.53%16.70%15.48%(6:00-9:00)14037
DSV48.56%19.07%15.59%16.78%(9:00-14:30)30763
ASV52.63%16.02%15.93%15.42%(14:30-22:00)42872
SNV48.58%14.77%16.73%19.92%(22:00-24:00)7632

Shepard vs Magus vs Sandbag vs Sonic

TimeShepardMagusSandbagSonicDemographicVotes
EBV10.78%28.24%27.09%33.89%(0:00-0:05)1735
PHV12.57%27.54%26.67%33.22%(0:00-1:00)12424
FNV13.46%26.93%22.91%36.70%(1:00-6:00)22785
BSV13.37%23.49%23.57%39.56%(6:00-9:00)13086
DSV13.77%26.10%22.38%37.74%(9:00-14:30)29707
ASV13.26%22.20%27.64%36.91%(14:30-22:00)45961
SNV13.66%26.83%25.03%34.49%(22:00-24:00)7806

Auron vs Fenix vs Rydia vs Sub-Zero

TimeAuronFenixRydiaSub-ZeroDemographicVotes
EBV35.84%17.31%20.31%26.54%(0:00-0:05)1571
PHV37.75%16.06%18.90%27.29%(0:00-1:00)11908
FNV40.44%14.73%18.71%26.13%(1:00-6:00)23293
BSV40.19%15.32%17.42%27.07%(6:00-9:00)13515
DSV39.85%15.52%17.34%27.29%(9:00-14:30)30190
ASV38.91%17.63%16.64%26.82%(14:30-22:00)41924
SNV39.94%16.33%16.80%26.93%(22:00-24:00)7679

Nana vs Ratchet vs Sephiroth vs Tifa

TimeNanaRatchetSephirothTifaDemographicVotes
EBV13.71%14.50%40.34%31.44%(0:00-0:05)1517
PHV12.71%13.63%42.70%30.96%(0:00-1:00)11850
FNV10.15%12.32%45.80%31.74%(1:00-6:00)25759
BSV10.23%14.18%47.60%28.00%(6:00-9:00)11978
DSV10.37%15.27%47.54%26.81%(9:00-14:30)38044
ASV9.94%13.89%48.81%27.36%(14:30-22:00)37371
SNV9.45%12.89%49.34%28.32%(22:00-24:00)6913

Heavy vs Jill V. vs Kratos vs Ocelot

TimeHeavyJill V.KratosOcelotDemographicVotes
EBV14.44%24.38%33.40%27.78%(0:00-0:05)1530
PHV14.63%26.44%33.68%25.25%(0:00-1:00)11780
FNV14.08%27.04%33.20%25.67%(1:00-6:00)27237
BSV12.72%26.66%34.71%25.90%(6:00-9:00)11412
DSV12.43%24.88%39.02%23.67%(9:00-14:30)38428
ASV12.25%25.00%39.49%23.26%(14:30-22:00)40229
SNV11.80%26.23%39.19%22.78%(22:00-24:00)7559

Round 2 Edit

Zack vs Wario vs Link vs Zidane

TimeZackWarioLinkZidaneDemographicVotes
EBV23.31%11.89%49.85%14.95%(0:00-0:05)1699
PHV23.29%11.45%51.82%13.45%(0:00-1:00)12746
FNV26.11%10.69%49.27%13.93%(1:00-6:00)23710
BSV23.51%11.65%52.08%12.77%(6:00-9:00)14210
DSV24.24%10.67%52.41%12.67%(9:00-14:30)30794
ASV22.76%10.24%56.33%10.67%(14:30-22:00)48647
SNV24.61%9.07%55.46%10.86%(22:00-24:00)8248

Marth vs Duke vs Altair vs Lucario

TimeMarthDukeAltairLucarioDemographicVotes
EBV29.46%29.40%25.44%15.69%(0:00-0:05)1663
PHV26.19%31.17%27.75%14.88%(0:00-1:00)12103
FNV21.97%34.64%29.09%14.30%(1:00-6:00)22438
BSV21.91%31.95%30.71%15.43%(6:00-9:00)13828
DSV21.70%33.27%30.76%14.27%(9:00-14:30)30076
ASV24.09%28.01%31.37%16.53%(14:30-22:00)46047
SNV24.09%28.87%32.09%14.95%(22:00-24:00)8323

Luigi vs Liquid vs Bowser vs Phoenix

TimeLuigiLiquidBowserPhoenixDemographicVotes
EBV27.69%27.01%22.27%23.02%(0:00-0:05)1477
PHV26.56%30.22%21.79%21.43%(0:00-1:00)9764
FNV25.80%31.12%21.11%21.97%(1:00-6:00)21748
BSV28.28%29.50%23.05%19.17%(6:00-9:00)13824
DSV27.51%31.69%22.79%18.02%(9:00-14:30)29954
ASV29.40%29.81%23.46%17.34%(14:30-22:00)45044
SNV27.33%31.79%22.84%18.04%(22:00-24:00)7452

Mario vs Zelda vs Mega Man X vs Mudkip

TimeMarioZeldaMega Man XMudkipDemographicVotes
EBV31.32%19.46%30.87%18.35%(0:00-0:05)1542
PHV28.23%19.12%30.53%22.12%(0:00-1:00)12588
FNV28.66%19.79%30.94%20.61%(1:00-6:00)24009
BSV32.99%21.00%27.99%18.01%(6:00-9:00)14216
DSV32.45%20.61%30.41%16.53%(9:00-14:30)30780
ASV31.87%19.85%29.04%19.24%(14:30-22:00)47361
SNV28.92%20.31%33.66%17.11%(22:00-24:00)8271

Samus vs Nightmare vs Ganondorf vs Frog

TimeSamusNightmareGanondorfFrogDemographicVotes
EBV37.71%12.79%26.26%23.23%(0:00-0:05)1485
PHV39.93%12.46%25.10%22.51%(0:00-1:00)11068
FNV39.81%15.07%23.24%21.88%(1:00-6:00)21696
BSV41.09%15.61%24.71%18.59%(6:00-9:00)12789
DSV39.97%14.90%24.78%20.35%(9:00-14:30)30087
ASV40.35%16.02%25.20%18.43%(14:30-22:00)40197
SNV40.39%16.51%24.08%19.02%(22:00-24:00)7130

Vincent vs Falco vs Scorpion vs Freeman

TimeVincentFalcoScorpionFreemanDemographicVotes
EBV36.09%18.96%20.50%24.45%(0:00-0:05)1366
PHV37.55%17.17%19.98%25.30%(0:00-1:00)11040
FNV40.60%14.01%19.13%26.27%(1:00-6:00)24956
BSV41.84%15.86%17.57%24.73%(6:00-9:00)11688
DSV39.37%18.09%18.70%23.83%(9:00-14:30)38037
ASV40.17%16.77%19.11%23.95%(14:30-22:00)37193
SNV42.03%15.79%19.29%22.89%(22:00-24:00)7138

Crono vs Ammy vs L-Block vs Ryu

TimeCronoAmmyL-BlockRyuDemographicVotes
EBV30.85%15.06%29.25%24.85%(0:00-0:05)1501
PHV32.49%15.10%29.07%23.34%(0:00-1:00)12250
FNV32.66%15.92%27.40%24.02%(1:00-6:00)27700
BSV30.41%17.97%27.18%24.44%(6:00-9:00)12130
DSV31.64%16.89%28.25%23.21%(9:00-14:30)39318
ASV31.99%16.11%27.74%24.15%(14:30-22:00)43248
SNV34.79%15.34%26.55%25.79%(22:00-24:00)7941

Alucard vs Falcon vs Pikachu vs Arthas

TimeAlucardFalconPikachuArthasDemographicVotes
EBV28.59%21.29%31.68%18.44%(0:00-0:05)1616
PHV28.87%21.13%30.08%19.92%(0:00-1:00)11966
FNV30.58%18.28%28.16%22.98%(1:00-6:00)23277
BSV29.25%19.97%31.58%19.21%(6:00-9:00)13792
DSV31.36%18.02%28.16%22.46%(9:00-14:30)29809
ASV27.27%20.14%32.46%20.13%(14:30-22:00)47095
SNV29.85%17.01%30.01%23.13%(22:00-24:00)7883

Cube vs Tidus vs Mega Man vs Nero

TimeCubeTidusMega ManNeroDemographicVotes
EBV28.98%21.71%37.88%11.43%(0:00-0:05)1663
PHV30.46%21.44%38.03%10.06%(0:00-1:00)12432
FNV29.02%23.28%36.40%11.31%(1:00-6:00)23600
BSV28.74%24.28%34.92%12.06%(6:00-9:00)15019
DSV26.84%23.40%37.58%12.18%(9:00-14:30)31193
ASV29.17%22.00%35.85%12.97%(14:30-22:00)48455
SNV28.00%22.43%37.17%12.41%(22:00-24:00)8212

Hayabusa vs Zero vs Snake vs Vivi

TimeHayabusaZeroSnakeViviDemographicVotes
EBV12.50%22.84%43.65%21.01%(0:00-0:05)1528
PHV13.29%23.61%42.84%20.26%(0:00-1:00)11642
FNV13.83%21.13%44.17%20.88%(1:00-6:00)22773
BSV13.29%20.11%44.82%21.78%(6:00-9:00)14405
DSV14.26%20.20%43.47%22.08%(9:00-14:30)30304
ASV14.18%21.89%43.20%20.73%(14:30-22:00)46704
SNV13.98%22.95%42.95%20.11%(22:00-24:00)8090

Sora vs Fox vs Squall vs Yoshi

TimeSoraFoxSquallYoshiDemographicVotes
EBV24.38%21.15%29.32%25.14%(0:00-0:05)1579
PHV26.16%19.82%29.86%24.15%(0:00-1:00)11017
FNV26.70%16.85%34.02%22.43%(1:00-6:00)21537
BSV27.05%18.14%30.78%24.03%(6:00-9:00)13492
DSV26.36%18.20%32.38%23.05%(9:00-14:30)29137
ASV30.95%19.83%27.65%21.57%(14:30-22:00)44790
SNV30.15%19.80%30.00%20.05%(22:00-24:00)7561

Cloud vs Midna vs Mewtwo vs Pac-Man

TimeCloudMidnaMewtwoPac-ManDemographicVotes
EBV46.03%17.61%23.02%13.34%(0:00-0:05)1499
PHV49.53%17.22%19.63%13.63%(0:00-1:00)11321
FNV54.23%16.23%16.33%13.20%(1:00-6:00)22737
BSV53.40%15.67%16.21%14.72%(6:00-9:00)14230
DSV54.63%15.75%15.78%13.84%(9:00-14:30)30794
ASV53.06%16.49%17.50%12.94%(14:30-22:00)40118
SNV55.11%15.05%17.44%12.40%(22:00-24:00)6984

Big Boss vs Kirby vs The Chief vs Raiden

TimeBig BossKirbyThe ChiefRaidenDemographicVotes
EBV25.60%34.05%27.98%12.38%(0:00-0:05)1301
PHV28.00%32.49%28.28%11.23%(0:00-1:00)10461
FNV29.59%30.13%27.45%12.83%(1:00-6:00)24001
BSV27.90%32.89%26.40%12.81%(6:00-9:00)11754
DSV24.44%32.57%31.51%11.48%(9:00-14:30)39692
ASV24.99%30.53%32.41%12.07%(14:30-22:00)41201
SNV25.63%31.52%30.64%12.20%(22:00-24:00)7810

Leon vs Riku vs Dante vs Hogger

TimeLeonRikuDanteHoggerDemographicVotes
EBV32.64%22.09%32.71%12.55%(0:00-0:05)1394
PHV32.07%22.24%31.84%13.85%(0:00-1:00)11963
FNV31.24%20.34%34.22%14.20%(1:00-6:00)29527
BSV30.33%22.98%35.47%11.27%(6:00-9:00)13345
DSV30.20%22.92%33.16%13.72%(9:00-14:30)40353
ASV30.89%22.68%34.36%12.07%(14:30-22:00)38919
SNV30.62%22.26%34.77%12.34%(22:00-24:00)7083

Sonic vs Sandbag vs Auron vs Sub-Zero

TimeSonicSandbagAuronSub-ZeroDemographicVotes
EBV31.08%18.34%34.98%15.60%(0:00-0:05)1538
PHV30.42%16.93%34.22%18.44%(0:00-1:00)10951
FNV29.49%14.17%36.47%19.87%(1:00-6:00)20608
BSV31.01%15.04%34.82%19.13%(6:00-9:00)14918
DSV29.91%13.91%35.34%20.84%(9:00-14:30)31121
ASV29.42%16.06%33.22%21.29%(14:30-22:00)45290
SNV27.23%15.15%35.46%22.16%(22:00-24:00)7481

Sephiroth vs Tifa vs Kratos vs Jill V.

TimeSephirothTifaKratosJill V.DemographicVotes
EBV35.86%22.25%24.92%16.97%(0:00-0:05)1609
PHV38.18%22.40%23.87%15.54%(0:00-1:00)11959
FNV39.31%23.29%22.01%15.39%(1:00-6:00)21950
BSV40.78%20.79%24.07%14.36%(6:00-9:00)15541
DSV42.43%19.04%24.69%13.84%(9:00-14:30)36190
ASV42.92%18.43%25.18%13.47%(14:30-22:00)43444
SNV42.74%19.67%24.13%13.47%(22:00-24:00)6814

Round 3 Edit

Link vs Zack vs Duke vs Altair

TimeLinkZackDukeAltairDemographicVotes
EBV52.36%20.91%17.61%9.13%(0:00-0:05)1545
PHV51.94%21.80%15.59%10.68%(0:00-1:00)13420
FNV48.11%24.73%16.02%11.15%(1:00-6:00)23575
BSV51.67%23.00%14.14%11.19%(6:00-9:00)15883
DSV51.51%22.07%14.76%11.66%(9:00-14:30)33204
ASV52.94%20.69%13.43%12.94%(14:30-22:00)49757
SNV51.70%21.86%13.61%12.83%(22:00-24:00)8074

Liquid vs Luigi vs Mario vs Mega Man X

TimeLiquidLuigiMarioMega Man XDemographicVotes
EBV20.08%17.49%33.78%28.66%(0:00-0:05)1584
PHV21.38%16.33%31.92%30.36%(0:00-1:00)11810
FNV23.02%14.68%31.50%30.81%(1:00-6:00)22234
BSV21.51%16.15%34.96%27.37%(6:00-9:00)14778
DSV22.30%15.43%33.37%28.90%(9:00-14:30)32602
ASV21.51%16.68%32.71%29.10%(14:30-22:00)46894
SNV21.24%15.71%30.71%32.33%(22:00-24:00)7739

Samus vs Ganondorf vs Vincent vs Freeman

TimeSamusGanondorfVincentFreemanDemographicVotes
EBV36.03%18.18%25.69%20.09%(0:00-0:05)1518
PHV35.32%17.01%28.45%19.21%(0:00-1:00)11197
FNV34.00%15.77%32.00%18.23%(1:00-6:00)22003
BSV34.68%16.72%30.58%18.02%(6:00-9:00)14770
DSV34.71%17.02%30.16%18.10%(9:00-14:30)31048
ASV35.29%17.61%30.06%17.05%(14:30-22:00)41518
SNV34.90%17.07%30.89%17.15%(22:00-24:00)7342

Crono vs L-Block vs Pikachu vs Alucard

TimeCronoL-BlockPikachuAlucardDemographicVotes
EBV30.94%27.12%27.66%14.28%(0:00-0:05)1464
PHV31.11%26.65%26.64%15.60%(0:00-1:00)11713
FNV31.93%24.25%26.11%17.71%(1:00-6:00)25765
BSV29.66%23.59%29.00%17.75%(6:00-9:00)12857
DSV30.56%24.51%27.91%17.02%(9:00-14:30)41237
ASV32.21%24.32%26.39%18.15%(14:30-22:00)38375
SNV30.83%23.96%26.76%18.44%(22:00-24:00)7103

Mega Man vs Cube vs Snake vs Zero

TimeMega ManCubeSnakeZeroDemographicVotes
EBV26.80%23.34%36.07%13.79%(0:00-0:05)1414
PHV24.92%25.04%35.64%14.40%(0:00-1:00)12398
FNV23.31%24.13%38.14%14.41%(1:00-6:00)27653
BSV23.57%21.41%41.27%13.75%(6:00-9:00)12882
DSV23.79%24.31%37.39%14.51%(9:00-14:30)41580
ASV23.35%23.89%37.33%15.42%(14:30-22:00)44042
SNV25.23%22.90%35.16%16.71%(22:00-24:00)7997

Squall vs Sora vs Cloud vs Mewtwo

TimeSquallSoraCloudMewtwoDemographicVotes
EBV16.20%16.60%36.37%30.82%(0:00-0:05)1765
PHV17.04%15.39%40.85%26.72%(0:00-1:00)12812
FNV18.34%14.01%44.96%22.68%(1:00-6:00)23776
BSV17.19%15.52%44.51%22.78%(6:00-9:00)14519
DSV17.06%14.27%46.32%22.36%(9:00-14:30)32782
ASV14.73%17.69%44.29%23.28%(14:30-22:00)48474
SNV15.41%16.00%46.51%22.08%(22:00-24:00)8205

Kirby vs The Chief vs Dante vs Leon

TimeKirbyThe ChiefDanteLeonDemographicVotes
EBV36.34%22.90%23.40%17.35%(0:00-0:05)1406
PHV32.12%23.38%24.50%20.00%(0:00-1:00)11888
FNV29.30%22.12%28.34%20.24%(1:00-6:00)23659
BSV31.31%21.53%27.33%19.84%(6:00-9:00)13979
DSV30.12%23.71%26.12%20.04%(9:00-14:30)37304
ASV29.49%26.18%25.21%19.12%(14:30-22:00)47905
SNV28.43%25.28%25.88%20.40%(22:00-24:00)7974

Auron vs Sonic vs Sephiroth vs Kratos

TimeAuronSonicSephirothKratosDemographicVotes
EBV17.80%35.61%31.29%15.30%(0:00-0:05)1320
PHV17.63%30.88%35.97%15.52%(0:00-1:00)10672
FNV18.17%27.85%38.92%15.05%(1:00-6:00)22273
BSV17.35%28.80%38.52%15.32%(6:00-9:00)14640
DSV17.62%27.50%38.81%16.07%(9:00-14:30)30870
ASV16.45%28.52%38.35%16.69%(14:30-22:00)47469
SNV16.92%25.20%40.17%17.71%(22:00-24:00)7866

Quarterfinals Edit

Link vs Zack vs Mario vs Mega Man X

TimeLinkZackMarioMega Man XDemographicVotes
EBV35.89%17.91%24.34%21.85%(0:00-0:05)1446
PHV38.24%20.07%22.11%19.58%(0:00-1:00)11351
FNV37.58%22.46%20.85%19.12%(1:00-6:00)22698
BSV38.92%21.56%23.38%16.15%(6:00-9:00)14441
DSV40.90%20.87%21.43%16.80%(9:00-14:30)30492
ASV41.80%20.01%21.94%16.26%(14:30-22:00)47910
SNV41.90%20.63%19.65%17.81%(22:00-24:00)8045

Samus vs Vincent vs Crono vs Pikachu

TimeSamusVincentCronoPikachuDemographicVotes
EBV30.23%22.77%26.36%20.63%(0:00-0:05)1449
PHV31.19%22.24%27.30%19.26%(0:00-1:00)10538
FNV30.41%26.09%25.92%17.59%(1:00-6:00)21153
BSV32.04%25.65%24.08%18.23%(6:00-9:00)13534
DSV31.62%25.73%25.87%16.78%(9:00-14:30)28315
ASV30.28%24.90%23.65%19.88%(14:30-22:00)41821
SNV28.58%24.63%28.21%18.59%(22:00-24:00)7828

Snake vs Cube vs Cloud vs Mewtwo

TimeSnakeCubeCloudMewtwoDemographicVotes
EBV30.34%22.90%31.40%15.35%(0:00-0:05)1694
PHV30.12%22.40%34.11%13.38%(0:00-1:00)12007
FNV30.42%19.72%37.47%12.40%(1:00-6:00)26074
BSV29.53%17.67%39.76%13.27%(6:00-9:00)13121
DSV28.72%18.89%38.56%13.84%(9:00-14:30)39708
ASV28.55%18.72%39.37%13.36%(14:30-22:00)38796
SNV27.69%18.79%40.41%13.10%(22:00-24:00)7471

Kirby vs Dante vs Sephiroth vs Sonic

TimeKirbyDanteSephirothSonicDemographicVotes
EBV26.93%17.07%30.36%25.64%(0:00-0:05)1400
PHV26.08%16.76%34.93%22.23%(0:00-1:00)11223
FNV23.12%17.41%38.88%20.59%(1:00-6:00)25635
BSV21.44%17.52%38.77%22.28%(6:00-9:00)12291
DSV23.67%16.50%38.08%21.74%(9:00-14:30)37762
ASV22.61%16.69%39.17%21.53%(14:30-22:00)41419
SNV21.10%17.55%40.57%20.78%(22:00-24:00)7426

Semifinals Edit

Link vs Mario vs Samus vs Crono

TimeLinkMarioSamusCronoDemographicVotes
EBV33.57%21.74%15.66%29.03%(0:00-0:05)1564
PHV36.62%19.68%16.50%27.20%(0:00-1:00)11421
FNV35.72%19.11%17.40%27.77%(1:00-6:00)21716
BSV38.03%20.64%17.00%24.33%(6:00-9:00)13408
DSV38.17%19.28%16.50%26.05%(9:00-14:30)29790
ASV40.21%19.86%16.51%23.44%(14:30-22:00)46874
SNV39.97%18.02%16.65%25.36%(22:00-24:00)7658

Cloud vs Snake vs Sephiroth vs Kirby

TimeCloudSnakeSephirothKirbyDemographicVotes
EBV25.79%33.05%10.74%30.41%(0:00-0:05)1667
PHV27.01%31.94%13.76%27.29%(0:00-1:00)12385
FNV31.28%30.61%15.69%22.42%(1:00-6:00)22566
BSV30.07%30.19%16.27%23.46%(6:00-9:00)14833
DSV30.86%31.50%16.67%20.98%(9:00-14:30)31560
ASV30.64%29.98%16.50%22.88%(14:30-22:00)47749
SNV32.21%31.70%15.99%20.10%(22:00-24:00)8367

Final Edit

Link vs Crono vs Snake vs Cloud

TimeLinkCronoSnakeCloudDemographicVotes
EBV32.77%13.95%33.87%19.40%(0:00-0:05)1727
PHV32.81%13.29%33.04%20.86%(0:00-1:00)12845
FNV30.72%12.53%31.15%25.61%(1:00-6:00)24956
BSV34.51%11.22%28.20%26.07%(6:00-9:00)15860
DSV33.24%12.50%27.62%26.63%(9:00-14:30)32940
ASV35.53%11.74%25.21%27.52%(14:30-22:00)51017
SNV32.81%13.47%24.88%28.84%(22:00-24:00)8887

Bonus Match Edit

Classic Link vs Young Link vs Toon Link vs CD-I Link

TimeClassic LinkYoung LinkToon LinkCD-I LinkDemographicVotes
EBV48.83%6.15%13.55%31.46%(0:00-0:05)1284
PHV55.38%5.64%13.18%25.80%(0:00-1:00)15190
FNV59.55%5.78%14.32%20.35%(1:00-6:00)26990
BSV64.30%6.07%14.86%14.77%(6:00-9:00)15913
DSV65.01%6.39%14.13%14.46%(9:00-14:30)33727
ASV63.09%6.54%15.03%15.34%(14:30-22:00)52533
SNV64.79%6.28%14.42%14.51%(22:00-24:00)8410
Community content is available under CC-BY-SA unless otherwise noted.